• în România
  • Lista ţărilor
  • Pe 7 zile
  • Temperatura apei
  • Hartă satelitară
  • Meteo pe hartă
  • Widget-uri
  • user-avatar
    Intrare

    Meteo pe oră la Naftalan

    Astăzi, 28 Februarie, Marţi

    Timp Temperatura Precipitaţii Vânt Presiune Umiditate
    00:00 +4°C° 0 mm 3 m/s 769 mmHg 93%
    01:00 +4°C° 0 mm 3 m/s 769 mmHg 94%
    02:00 +5°C° 0 mm 2 m/s 769 mmHg 94%
    03:00 +4°C° 0 mm 2 m/s 769 mmHg 95%
    04:00 +4°C° 0 mm 2 m/s 769 mmHg 95%
    05:00 +5°C° 0 mm 1 m/s 769 mmHg 95%
    06:00 +5°C° 0 mm 1 m/s 770 mmHg 95%
    07:00 +6°C° 0 mm 1 m/s 770 mmHg 88%
    08:00 +8°C° 0 mm 1 m/s 770 mmHg 80%
    09:00 +10°C° 0 mm 1 m/s 771 mmHg 73%
    10:00 +11°C° 0 mm 1 m/s 771 mmHg 65%
    11:00 +13°C° 0 mm 1 m/s 771 mmHg 57%
    12:00 +14°C° 0 mm 1 m/s 771 mmHg 49%
    13:00 +15°C° 0 mm 1 m/s 770 mmHg 48%
    14:00 +15°C° 0 mm 2 m/s 770 mmHg 47%
    15:00 +16°C° 0 mm 2 m/s 770 mmHg 46%
    16:00 +14°C° 0 mm 2 m/s 770 mmHg 56%
    17:00 +12°C° 0 mm 3 m/s 771 mmHg 66%
    18:00 +10°C° 0 mm 3 m/s 771 mmHg 75%
    19:00 +9°C° 0 mm 3 m/s 771 mmHg 79%
    20:00 +9°C° 0 mm 2 m/s 772 mmHg 82%
    21:00 +8°C° 0 mm 2 m/s 772 mmHg 86%
    22:00 +8°C° 0 mm 2 m/s 772 mmHg 86%
    23:00 +7°C° 0 mm 2 m/s 772 mmHg 85%

    Mâine, 1 Martie, Miercuri

    Timp Temperatura Precipitaţii Vânt Presiune Umiditate
    00:00 +7°C° 0 mm 2 m/s 772 mmHg 85%
    01:00 +7°C° 0 mm 2 m/s 772 mmHg 86%
    02:00 +6°C° 0 mm 2 m/s 772 mmHg 86%
    03:00 +6°C° 0 mm 2 m/s 772 mmHg 87%
    04:00 +6°C° 0 mm 2 m/s 772 mmHg 87%
    05:00 +6°C° 0 mm 2 m/s 772 mmHg 88%
    06:00 +6°C° 0 mm 2 m/s 772 mmHg 88%
    07:00 +8°C° 0 mm 3 m/s 772 mmHg 81%
    08:00 +10°C° 0 mm 3 m/s 772 mmHg 73%
    09:00 +12°C° 0 mm 3 m/s 772 mmHg 66%
    10:00 +13°C° 0 mm 3 m/s 772 mmHg 62%
    11:00 +14°C° 0 mm 3 m/s 772 mmHg 57%
    12:00 +17°C° 0 mm 4 m/s 771 mmHg 52%
    13:00 +17°C° 0 mm 4 m/s 771 mmHg 53%
    14:00 +17°C° 0 mm 4 m/s 770 mmHg 54%
    15:00 +16°C° 0 mm 5 m/s 770 mmHg 55%
    16:00 +14°C° 0 mm 5 m/s 770 mmHg 62%
    17:00 +12°C° 0 mm 5 m/s 770 mmHg 69%
    18:00 +10°C° 0 mm 5 m/s 770 mmHg 76%
    19:00 +9°C° 0 mm 5 m/s 770 mmHg 78%
    20:00 +9°C° 0 mm 5 m/s 770 mmHg 80%
    21:00 +8°C° 0 mm 5 m/s 770 mmHg 82%
    22:00 +8°C° 0 mm 4 m/s 769 mmHg 84%
    23:00 +7°C° 0 mm 4 m/s 769 mmHg 86%

    Poimâine, 2 Martie, Joi

    Timp Temperatura Precipitaţii Vânt Presiune Umiditate
    00:00 +7°C° 0 mm 4 m/s 769 mmHg 88%
    01:00 +6°C° 0 mm 4 m/s 768 mmHg 89%
    02:00 +7°C° 0 mm 3 m/s 768 mmHg 90%
    03:00 +7°C° 0 mm 3 m/s 768 mmHg 91%
    04:00 +7°C° 0 mm 2 m/s 768 mmHg 91%
    05:00 +6°C° 0 mm 2 m/s 768 mmHg 91%
    06:00 +6°C° 0 mm 2 m/s 768 mmHg 91%
    07:00 +8°C° 0 mm 2 m/s 768 mmHg 84%
    08:00 +11°C° 0 mm 1 m/s 768 mmHg 77%
    09:00 +12°C° 0 mm 1 m/s 768 mmHg 70%
    10:00 +14°C° 0 mm 2 m/s 767 mmHg 64%
    11:00 +15°C° 0 mm 2 m/s 767 mmHg 59%
    12:00 +16°C° 0 mm 3 m/s 766 mmHg 54%
    13:00 +16°C° 0 mm 3 m/s 766 mmHg 53%
    14:00 +17°C° 0 mm 4 m/s 765 mmHg 52%
    15:00 +17°C° 0 mm 4 m/s 765 mmHg 51%
    16:00 +14°C° 0 mm 4 m/s 765 mmHg 56%
    17:00 +13°C° 0 mm 4 m/s 765 mmHg 62%
    18:00 +11°C° 0 mm 3 m/s 765 mmHg 68%
    19:00 +11°C° 0 mm 3 m/s 765 mmHg 70%
    20:00 +10°C° 0 mm 3 m/s 765 mmHg 73%
    21:00 +10°C° 0 mm 2 m/s 765 mmHg 76%
    22:00 +9°C° 0 mm 2 m/s 765 mmHg 76%
    23:00 +10°C° 0 mm 1 m/s 765 mmHg 77%

    3 Martie, Vineri

    Timp Temperatura Precipitaţii Vânt Presiune Umiditate
    00:00 +10°C° 0 mm 1 m/s 764 mmHg 77%
    01:00 +10°C° 0 mm 1 m/s 764 mmHg 77%
    02:00 +9°C° 0 mm 1 m/s 764 mmHg 77%
    03:00 +9°C° 0 mm 1 m/s 764 mmHg 77%
    04:00 +9°C° 0 mm 1 m/s 764 mmHg 77%
    05:00 +9°C° 0 mm 1 m/s 764 mmHg 78%
    06:00 +9°C° 0 mm 1 m/s 764 mmHg 79%
    07:00 +10°C° 0 mm 1 m/s 764 mmHg 73%
    08:00 +12°C° 0 mm 2 m/s 764 mmHg 68%
    09:00 +14°C° 0 mm 2 m/s 764 mmHg 62%
    10:00 +15°C° 0 mm 2 m/s 764 mmHg 58%
    11:00 +16°C° 0 mm 1 m/s 764 mmHg 53%
    12:00 +18°C° 0 mm 1 m/s 764 mmHg 49%
    13:00 +18°C° 0 mm 2 m/s 763 mmHg 48%
    14:00 +18°C° 0 mm 2 m/s 763 mmHg 47%
    15:00 +19°C° 0 mm 2 m/s 763 mmHg 46%
    16:00 +17°C° 0 mm 3 m/s 763 mmHg 52%
    17:00 +16°C° 0 mm 3 m/s 763 mmHg 58%
    18:00 +13°C° 0 mm 4 m/s 764 mmHg 65%
    19:00 +12°C° 0 mm 3 m/s 764 mmHg 66%
    20:00 +12°C° 0 mm 3 m/s 764 mmHg 68%
    21:00 +12°C° 0 mm 2 m/s 765 mmHg 69%
    22:00 +12°C° 0 mm 2 m/s 765 mmHg 70%
    23:00 +11°C° 0 mm 1 m/s 764 mmHg 72%

    4 Martie, Sâmbătă

    Timp Temperatura Precipitaţii Vânt Presiune Umiditate
    00:00 +11°C° 0 mm 1 m/s 764 mmHg 73%
    01:00 +10°C° 0 mm 1 m/s 764 mmHg 74%
    02:00 +10°C° 0 mm 1 m/s 765 mmHg 76%
    03:00 +10°C° 0 mm 1 m/s 765 mmHg 77%
    04:00 +10°C° 0 mm 1 m/s 765 mmHg 77%
    05:00 +9°C° 0 mm 2 m/s 766 mmHg 77%
    06:00 +9°C° 0 mm 2 m/s 766 mmHg 77%
    07:00 +10°C° 0 mm 2 m/s 767 mmHg 71%
    08:00 +13°C° 0 mm 2 m/s 767 mmHg 66%
    09:00 +15°C° 0 mm 1 m/s 768 mmHg 60%
    10:00 +16°C° 0 mm 2 m/s 768 mmHg 54%
    11:00 +17°C° 0 mm 3 m/s 768 mmHg 48%
    12:00 +19°C° 0 mm 4 m/s 768 mmHg 41%
    13:00 +17°C° 0 mm 5 m/s 768 mmHg 42%
    14:00 +17°C° 0 mm 5 m/s 768 mmHg 42%
    15:00 +17°C° 0 mm 6 m/s 768 mmHg 42%
    16:00 +15°C° 0 mm 6 m/s 768 mmHg 49%
    17:00 +14°C° 0 mm 5 m/s 769 mmHg 55%
    18:00 +12°C° 0 mm 5 m/s 769 mmHg 62%
    19:00 +10°C° 0 mm 5 m/s 770 mmHg 64%
    20:00 +11°C° 0 mm 4 m/s 770 mmHg 67%
    21:00 +10°C° 0 mm 4 m/s 770 mmHg 69%
    22:00 +10°C° 0 mm 4 m/s 771 mmHg 70%
    23:00 +10°C° 0 mm 4 m/s 771 mmHg 72%

    5 Martie, Duminică

    Timp Temperatura Precipitaţii Vânt Presiune Umiditate
    00:00 +10°C° 0 mm 4 m/s 771 mmHg 74%
    01:00 +8°C° 0 mm 4 m/s 771 mmHg 76%
    02:00 +8°C° 0 mm 4 m/s 771 mmHg 78%
    03:00 +7°C° 0 mm 4 m/s 771 mmHg 80%
    04:00 +7°C° 0 mm 4 m/s 772 mmHg 82%
    05:00 +7°C° 0 mm 4 m/s 772 mmHg 83%
    06:00 +7°C° 0 mm 4 m/s 772 mmHg 85%
    07:00 +8°C° 0 mm 4 m/s 773 mmHg 81%
    08:00 +10°C° 0 mm 4 m/s 773 mmHg 78%
    09:00 +11°C° 0 mm 4 m/s 773 mmHg 74%
    10:00 +12°C° 0 mm 4 m/s 773 mmHg 70%
    11:00 +13°C° 0 mm 4 m/s 773 mmHg 66%
    12:00 +14°C° 0 mm 4 m/s 773 mmHg 62%
    13:00 +14°C° 0 mm 4 m/s 773 mmHg 62%
    14:00 +14°C° 0 mm 4 m/s 772 mmHg 63%
    15:00 +13°C° 0 mm 4 m/s 772 mmHg 64%
    16:00 +12°C° 0 mm 4 m/s 772 mmHg 66%
    17:00 +11°C° 0 mm 4 m/s 773 mmHg 69%
    18:00 +10°C° 0 mm 3 m/s 773 mmHg 72%
    19:00 +10°C° 0 mm 3 m/s 773 mmHg 74%
    20:00 +9°C° 0 mm 3 m/s 773 mmHg 75%
    21:00 +8°C° 0 mm 3 m/s 774 mmHg 77%
    22:00 +8°C° 0 mm 3 m/s 773 mmHg 77%
    23:00 +7°C° 0 mm 3 m/s 773 mmHg 78%
    Arată mai mult